www.pogodaiklimat.ru

Погода и климат >> Архив погоды >> Кот-д'Ивуар >> Yamoussoukro


ПОГОДА в Yamoussoukro

  • Прогноз погоды в Yamoussoukro
  • Монитор погоды в Yamoussoukro
  • Климат города

АРХИВ ПОГОДЫ в Yamoussoukro

Время (UTC), дата Ветер
(напр.,м/с)
 
Видим.   Явления Облачность Т
(С)
Тd
(С)
f
(%)
Тe
(С)
Тes
(С)
Комфортность P
(гПа)
Po
(гПа)
Тmin
(С)
Tmax
(С)
R
(мм)
R24
(мм)
S
(см)
15 16.06 ЮЗ 3 8000 м гроза, ливневой дождь 10/5 330 м
[Cb cap Ac As]
+24.4 +23.8 96 +33 +35 очень
душно
1011.8 987.9
18 16.06 ЮЗ 2 8000 м {гроза, дождь} 9/3 330 м
[Cu med, cong Ac As]
+25.6 +24.5 94 +36 +36 очень
душно
1012.0 988.3 +29.1 3
21 16.06 Ю 2 8000 м 9/3 330 м
[Cu med, cong Ac As]
+24.6 +23.7 95 +33 +33 очень
душно
1013.8 989.9
00 17.06 штиль 0 10 км 6/0
[Ac As]
+23.7 +23.1 96 +31 +31 очень
душно
1014.6 971.0
03 17.06 штиль 0 10 км 10/0
[Ac As]
+23.1 +22.7 98 +32 +32 очень
душно
1012.7 988.7
06 17.06 штиль 0 3000 м дымка {дождь} 6/0
[Ac As]
+23.4 +22.8 96 +33 +33 очень
душно
1012.9 988.9 +22.5 0.4
09 17.06 ЮЗ 5 8000 м {туман} 9/9 330 м
[Cu med, cong]
+24.8 +23.4 92 +33 +34 очень
душно
1013.9 990.0
12 17.06 З 4 8000 м {туман} 10/8 400 м
[Cu med, cong Ac As]
+25.5 +23.1 87 +34 +35 очень
душно
1014.0 990.1
15 17.06 СЗ 2 8000 м слабый дождь 10/6 400 м
[Cu med, cong Ac As]
+25.2 +23.5 90 +34 +35 очень
душно
1011.4 987.6
18 17.06 ЮЗ 2 8000 м гроза, ливневой дождь 9/4 400 м
[Cb cap Ac trans]
+25.2 +24.3 95 +35 +35 очень
душно
1011.0 987.2 +28.8 11
21 17.06 ЮЗ 2 8000 м {гроза, дождь} 8/3 330 м
[Sc Ac As]
+23.2 +22.9 98 +32 +32 очень
душно
1011.5 987.7
00 18.06 штиль 0 6000 м {гроза, дождь} ясно +22.5 +22.2 98 +30 +30 очень
душно
1011.8 987.6 0.2
03 18.06 ЮЗ 4 4000 м дымка {туман} 8/8 300 м
[Sc]
+22.6 +22.4 99 +31 +31 очень
душно
1011.0 987.0
06 18.06 ЮЗ 4 6000 м {туман} 10/10 300 м
[Cu med, cong]
+23.0 +22.6 98 +32 +32 очень
душно
1012.2 988.2 +22.3 11
09 18.06 ЮЗ 5 8000 м 8/8 300 м
[Cu med, cong]
+25.6 +23.8 90 +35 +36 очень
душно
1012.8 989.0
12 18.06 З 2 10 км 8/8 400 м
[Cu med, cong]
+29.5 +23.5 70 +40 +44 очень
душно
1011.5 988.0
15 18.06 З 2 10 км 9/5 450 м
[Cu med, cong Ac As]
+30.0 +23.0 66 +40 +43 очень
душно
1009.7 986.3
18 18.06 штиль 0 10 км 6/1 450 м
[Cb cap Ac trans]
+30.1 +24.6 72 +42 +43 опасность
перегрева
1009.7 986.3 +32.3
21 18.06 штиль 0 10 км зарница 4/1 330 м
[Cb cap Ac trans]
+25.4 +24.2 93 +35 +35 очень
душно
1011.7 987.9
00 19.06 Ю 2 10 км 4/4 300 м
[Sc]
+25.0 +23.9 94 +34 +34 очень
душно
1012.7 988.8
03 19.06 штиль 0 10 км 5/5 300 м
[Sc]
+23.5 +23.1 98 +31 +31 очень
душно
1011.0 987.1
06 19.06 ЮЗ 3 8000 м 10/10 300 м
[Sc]
+26.6 +23.2 82 +36 +36 очень
душно
1011.8 988.1 +23.3
09 19.06 ЮЗ 5 8000 м 10/10 240 м
[Cu Sc]
+24.4 +22.9 91 +32 +32 очень
душно
1013.4 989.5
12 19.06 Ю 7 10 км 9/9 400 м
[Cu med, cong]
+28.5 +24.7 80 +41 +41 опасность
перегрева
1012.4 988.8
15 19.06 ЮВ 4 10 км 8/8 450 м
[Cu med, cong]
+30.5 +23.5 66 +41 +43 опасность
перегрева
1009.5 986.2
18 19.06 Ю 6 10 км 4/3 400 м
[Cb cap Ac As]
+26.2 +23.9 87 +36 +36 очень
душно
1010.6 986.9 +32.4
21 19.06 Ю 2 8000 м гроза без осадков {дождь} 9/8 330 м
[Cb cap Ac As]
+24.5 +23.9 96 +33 +33 очень
душно
1013.1 989.2
03 20.06 ЮЗ 3 10 км 9/8 300 м
[Sc Ac As]
+23.4 +22.6 95 +32 +32 очень
душно
1011.8 1087.8
06 20.06 штиль 0 10 км 10/8 240 м
[Sc Ac As]
+24.2 +22.9 92 +32 +32 очень
душно
1013.2 989.3 +23.0 0.8
09 20.06 ЮЗ 6 10 км 9/9 330 м
[Cu med, cong]
+25.9 +23.1 85 +35 +35 очень
душно
1014.5 973.5
12 20.06 Ю 4 10 км 9/9 400 м
[Cu med, cong]
+27.8 +23.4 77 +38 +39 очень
душно
1013.4 989.7
15 20.06 Ю 4 10 км в посл. час дождь 9/6 360 м
[Cu med, cong Ac trans Ci sp]
+26.2 +23.2 84 +35 +37 очень
душно
1011.0 987.2
18 20.06 Ю 4 10 км {дождь} 9/4 360 м
[Cu med, cong Ac As Ci sp]
+25.2 +22.8 87 +33 +34 очень
душно
1011.0 987.2 +28.6 26
21 20.06 Ю 4 10 км 9/3 330 м
[Sc Ac As]
+24.1 +23.0 94 +32 +32 очень
душно
1013.4 989.5
00 21.06 ЮЗ 3 8000 м в посл. час дождь 9/3 300 м
[Sc Ac As]
+23.8 +23.2 96 +32 +32 очень
душно
1014.3 990.1 0.3
03 21.06 штиль 0 8000 м 9/0
[Ac As]
+23.6 +23.2 98 +32 +32 очень
душно
1012.5 988.5
06 21.06 ЮЗ 2 8000 м 9/5 300 м
[Sc Ac As]
+23.6 +23.2 98 +32 +32 очень
душно
1013.1 989.1 +23.5 26
09 21.06 ЮЗ 3 10 км 10/8 360 м
[Cu med, cong Ac As]
+24.8 +23.3 91 +33 +34 очень
душно
1014.7 990.8
12 21.06 ЮЗ 3 10 км 9/8 400 м
[Cu med, cong Ac trans]
+27.0 +23.1 79 +36 +38 очень
душно
1014.2 990.4
15 21.06 З 2 10 км 8/3 450 м
[Cu med, cong Ac trans]
+29.1 +22.3 67 +38 +43 очень
душно
1011.5 988.0
18 21.06 штиль 0 10 км 3/1 450 м
[Cb cap Ac trans]
+29.8 +24.0 71 +41 +42 опасность
перегрева
1011.2 987.7 +31.5
21 21.06 штиль 0 10 км 6/6 360 м
[Sc]
+25.4 +23.1 87 +34 +34 очень
душно
1012.8 989.5
00 22.06 ЮЗ 1 10 км 3/3 300 м
[Sc]
+22.8 +22.7 99 +31 +31 очень
душно
1014.2 990.2
06 22.06 ЮЗ 2 10 км 10/5 300 м
[Sc Ac As]
+22.8 +22.1 96 +31 +31 очень
душно
1014.1 990.1 +22.6
09 22.06 ЮЗ 2 10 км 9/1 330 м
[Cu med, cong Ac trans]
+25.1 +22.4 85 +33 +36 очень
душно
1015.8 991.8
12 22.06 СЗ 2 10 км 8/8 400 м
[Cu med, cong Ac trans]
+28.4 +23.3 74 +38 +42 очень
душно
1014.4 990.8
15 22.06 С 3 10 км 8/6 400 м
[Cu med, cong Ac trans]
+28.6 +24.0 76 +40 +42 очень
душно
1010.6 988.1
18 22.06 штиль 0 10 км 9/0
[Ac trans Ci sp]
+29.8 +24.4 73 +42 +42 опасность
перегрева
1010.1 986.7 +32.5
21 22.06 штиль 0 10 км 5/0
[Ci sp]
+24.9 +24.2 96 +34 +34 очень
душно
1012.4 988.5
00 23.06 штиль 0 10 км 5/1 300 м
[Sc Ac trans]
+23.9 +23.4 97 +32 +32 очень
душно
1012.5 988.6
06 23.06 ЮЗ 2 10 км гроза без осадков 8/6 300 м
[Cb cap Ac trans]
+24.0 +22.8 93 +32 +32 очень
душно
1013.2 989.2 +23.4
09 23.06 ЮЗ 3 10 км {гроза} 9/9 330 м
[Cu med, cong]
+24.9 +23.1 90 +33 +34 очень
душно
1013.9 990.0
12 23.06 З 2 10 км {гроза} 9/5 400 м
[Cu med, cong Ac As]
+29.4 +24.4 75 +42 +46 опасность
перегрева
1012.2 988.7

 

Местоположение метеостанции Yamoussoukro (Кот-д'Ивуар): широта 6.90 долгота -5.35 высота над уровнем моря 213 м.

В архиве по умолчанию представлена погода в Yamoussoukro за последнюю неделю. Архивные данные за месяц целиком и за предыдущие месяцы, начиная с января 2011 года, Вы можете получить, выбрав интересующий диапазон дат из раскрывающегося списка и нажав кнопку "Ввод!".

Внимание! Время в таблицах - всемирное. Для получения местного времени необходимо прибавить поправку, которая в Yamoussoukro равна 0 ч.

Смотрите также архив погоды в соседних городах и на ближайших метеорологических станциях:

Погода в Dimbokro (Кот-д'Ивуар) (77 км)
Погода в Bouake (Кот-д'Ивуар) (98 км)
Погода в Gagnoa (Кот-д'Ивуар) (108 км)
Погода в Daloa (Кот-д'Ивуар) (124 км)
Погода в Sassandra (Кот-д'Ивуар) (231 км)
Погода в Abidjan (Кот-д'Ивуар) (242 км)
Погода в Man (Кот-д'Ивуар) (245 км)
Погода в San Pedro (Кот-д'Ивуар) (279 км)
Погода в Korhogo (Кот-д'Ивуар) (282 км)
Погода в Adiake (Кот-д'Ивуар) (288 км)

Пояснения к столбцам:

Ветер - указаны скорость ветра в м/с - средняя за 10 мин, порывы в срок и между сроками (в фигурных скобках) и направление, откуда дует ветер: С - северный, СВ - северо-восточный, В - восточный, ЮВ - юго-восточный, Ю - южный, ЮЗ - юго-западный, З - западный, СЗ - северо-западный.
Видимость - горизонтальная дальность видимости в метрах или километрах. При видимости от 1 до 10 км при отсутствии осадков обычно наблюдается дымка, при ухудшении видимости до 1 км и менее - туман. В сухую погоду видимость может ухудшаться дымом, пылью или мглою.
Явления - указаны атмосферные явления, наблюдавшиеся в срок или в последний час перед сроком; фигурными скобками обозначены явления, наблюдавшиеся между сроками (за 1-3 часа до срока); квадратными скобками обозначены град или гололедные отложения с указанием их диаметра в мм.
Облачность - указаны через наклонную черту общая и нижняя облачность в баллах и высота нижней границы облаков в метрах; квадратными скобками обозначены формы облаков: Ci - перистые, Cs - перисто-слоистые, Cc - перисто-кучевые, Ac - высококучевые, As - высокослоистые, Sc - слоисто-кучевые, Ns - слоисто-дождевые, Cu - кучевые, Cb - кучево-дождевые. Подробнее классификацию облаков см. в Атласе облаков (PDF).
T - Температура воздуха - температура, измеренная на высоте 2 м над землей.
Td - Температура точки росы - температура, при понижении до которой содержащийся в воздухе водяной пар достигнет насыщения.
f - Относительная влажность воздуха - влажноcть воздуха, измеренная на высоте 2 м над землей.
Te - Эффективная температура - температура, которую ощущает одетый по сезону человек в тени. Характеристика душности погоды. При расчете учитывается влияние влажности воздуха и скорости ветра на теплоощущения человека.
Tes - Эффективная температура на солнце - температура, которую ощущает человек, с поправкой на солнечный нагрев. Характеристика знойности погоды. Зависит от высоты солнца над горизонтом, облачности и скорости ветра. Ночью, в пасмурную погоду, а также при ветре 12 м/с и более поправка равна нулю.
P - Атмосферное давление - приведенное к уровню моря атмосферное давление.
Po - Атмосферное давление - измеренное на уровне метеостанции атмосферное давление.
Tmin - Минимальная температура - минимум температуры воздуха на высоте 2 м над землей.
Tmax - Максимальная температура - максимум температуры воздуха на высоте 2 м над землей.
R - Количество осадков - Количество выпавших осадков за период времени, мм. При наведении курсора мыши на число - период времени, за который выпало указанное количество осадков.
R24 - Количество осадков - Количество выпавших осадков за 24 часа, мм.
S - Снежный покров - Высота снежного покрова, см. При наведении курсора мыши на число - состояние снежного покрова и степень покрытия местности в баллах.